• In Austria
  • List of Countries
  • For 7 days
  • Water Temperature
  • Satellite Maps
  • Weather Map
  • News
  • Weather Widgets
  • user-avatar
    Login

    Hourly Weather Glinische

    Today, 23 October, Tuesday

    Time Temperature Precipitation Wind Pressure Humidity
    00:00 +4°C° 0.4 mm 4 mps 737 mmHg 87%
    01:00 +4°C° 0.4 mm 4 mps 737 mmHg 89%
    02:00 +4°C° 0.4 mm 4 mps 736 mmHg 90%
    03:00 +4°C° 0.5 mm 3 mps 736 mmHg 91%
    04:00 +4°C° 0.5 mm 3 mps 735 mmHg 91%
    05:00 +4°C° 0.5 mm 3 mps 735 mmHg 92%
    06:00 +4°C° 0.1 mm 3 mps 735 mmHg 92%
    07:00 +4°C° 0.1 mm 3 mps 735 mmHg 91%
    08:00 +5°C° 0.1 mm 2 mps 735 mmHg 91%
    09:00 +5°C° 0 mm 2 mps 734 mmHg 86%
    10:00 +6°C° 0 mm 2 mps 734 mmHg 81%
    11:00 +6°C° 0 mm 2 mps 733 mmHg 77%
    12:00 +6°C° 0 mm 2 mps 733 mmHg 73%
    13:00 +7°C° 0 mm 2 mps 732 mmHg 70%
    14:00 +7°C° 0 mm 2 mps 731 mmHg 66%
    15:00 +6°C° 0 mm 2 mps 730 mmHg 71%
    16:00 +5°C° 0 mm 2 mps 730 mmHg 75%
    17:00 +5°C° 0 mm 2 mps 729 mmHg 79%
    18:00 +5°C° 0 mm 2 mps 728 mmHg 80%
    19:00 +4°C° 0 mm 3 mps 727 mmHg 80%
    20:00 +3°C° 0 mm 3 mps 726 mmHg 81%
    21:00 +3°C° 0.1 mm 3 mps 725 mmHg 80%
    22:00 +3°C° 0.1 mm 4 mps 724 mmHg 79%
    23:00 +3°C° 0.1 mm 4 mps 723 mmHg 79%

    Tomorrow, 24 October, Wednesday

    Time Temperature Precipitation Wind Pressure Humidity
    00:00 +3°C° 0.2 mm 4 mps 722 mmHg 80%
    01:00 +2°C° 0.2 mm 5 mps 721 mmHg 81%
    02:00 +2°C° 0.2 mm 5 mps 720 mmHg 82%
    03:00 +2°C° 0.4 mm 5 mps 719 mmHg 83%
    04:00 +2°C° 0.4 mm 5 mps 718 mmHg 84%
    05:00 +2°C° 0.4 mm 5 mps 717 mmHg 84%
    06:00 +2°C° 0.3 mm 5 mps 717 mmHg 85%
    07:00 +3°C° 0.3 mm 4 mps 716 mmHg 86%
    08:00 +3°C° 0.3 mm 4 mps 716 mmHg 86%
    09:00 +3°C° 0.4 mm 4 mps 716 mmHg 86%
    10:00 +4°C° 0.4 mm 3 mps 716 mmHg 86%
    11:00 +4°C° 0.4 mm 3 mps 716 mmHg 86%
    12:00 +5°C° 0.7 mm 2 mps 716 mmHg 87%
    13:00 +5°C° 0.7 mm 2 mps 716 mmHg 88%
    14:00 +5°C° 0.7 mm 2 mps 716 mmHg 89%
    15:00 +6°C° 0.4 mm 1 mps 716 mmHg 91%
    16:00 +6°C° 0.4 mm 1 mps 717 mmHg 93%
    17:00 +5°C° 0.4 mm 1 mps 717 mmHg 94%
    18:00 +5°C° 0.3 mm 1 mps 717 mmHg 94%
    19:00 +5°C° 0.3 mm 1 mps 718 mmHg 95%
    20:00 +4°C° 0.3 mm 2 mps 718 mmHg 95%
    21:00 +4°C° 0.2 mm 2 mps 718 mmHg 94%
    22:00 +4°C° 0.2 mm 2 mps 719 mmHg 94%
    23:00 +4°C° 0.2 mm 2 mps 719 mmHg 94%

    Day after tomorrow, 25 October, Thursday

    Time Temperature Precipitation Wind Pressure Humidity
    00:00 +3°C° 0.2 mm 3 mps 719 mmHg 93%
    01:00 +3°C° 0.2 mm 3 mps 720 mmHg 93%
    02:00 +3°C° 0.2 mm 3 mps 720 mmHg 92%
    03:00 +3°C° 0.2 mm 3 mps 720 mmHg 91%
    04:00 +3°C° 0.2 mm 4 mps 720 mmHg 89%
    05:00 +3°C° 0.2 mm 4 mps 720 mmHg 88%
    06:00 +1°C° 0.1 mm 5 mps 720 mmHg 86%
    07:00 +1°C° 0.1 mm 5 mps 720 mmHg 84%
    08:00 +1°C° 0.1 mm 5 mps 720 mmHg 82%
    09:00 +1°C° 0 mm 5 mps 720 mmHg 80%
    10:00 +1°C° 0 mm 6 mps 720 mmHg 78%
    11:00 +1°C° 0 mm 6 mps 720 mmHg 76%
    12:00 +1°C° 0 mm 6 mps 720 mmHg 75%
    13:00 +1°C° 0 mm 6 mps 720 mmHg 73%
    14:00 +1°C° 0 mm 6 mps 720 mmHg 72%
    15:00 +1°C° 0 mm 6 mps 720 mmHg 74%
    16:00 +1°C° 0 mm 6 mps 721 mmHg 75%
    17:00 -1°C° 0 mm 6 mps 721 mmHg 76%
    18:00 +1°C° 0 mm 6 mps 721 mmHg 76%
    19:00 +1°C° 0 mm 6 mps 721 mmHg 75%
    20:00 +1°C° 0 mm 5 mps 722 mmHg 75%
    21:00 0°C° 0 mm 5 mps 722 mmHg 78%
    22:00 0°C° 0 mm 5 mps 722 mmHg 81%
    23:00 0°C° 0 mm 5 mps 723 mmHg 84%

    26 October, Friday

    Time Temperature Precipitation Wind Pressure Humidity
    00:00 0°C° 0 mm 5 mps 723 mmHg 84%
    01:00 0°C° 0 mm 5 mps 724 mmHg 84%
    02:00 0°C° 0 mm 5 mps 724 mmHg 84%
    03:00 0°C° 0 mm 4 mps 725 mmHg 85%
    04:00 -1°C° 0 mm 4 mps 725 mmHg 85%
    05:00 -1°C° 0 mm 4 mps 726 mmHg 86%
    06:00 -1°C° 0 mm 4 mps 726 mmHg 87%
    07:00 -1°C° 0 mm 4 mps 727 mmHg 87%
    08:00 -1°C° 0 mm 4 mps 727 mmHg 88%
    09:00 0°C° 0 mm 4 mps 728 mmHg 86%
    10:00 0°C° 0 mm 4 mps 728 mmHg 83%
    11:00 +1°C° 0 mm 4 mps 728 mmHg 81%
    12:00 +1°C° 0.1 mm 4 mps 729 mmHg 80%
    13:00 +1°C° 0.1 mm 4 mps 729 mmHg 80%
    14:00 +1°C° 0.1 mm 4 mps 729 mmHg 79%
    15:00 +1°C° 0 mm 4 mps 730 mmHg 80%
    16:00 +1°C° 0 mm 4 mps 730 mmHg 81%
    17:00 +1°C° 0 mm 4 mps 730 mmHg 82%
    18:00 +2°C° 0.1 mm 3 mps 731 mmHg 83%
    19:00 +1°C° 0.1 mm 3 mps 731 mmHg 85%
    20:00 +1°C° 0.1 mm 3 mps 732 mmHg 86%
    21:00 +1°C° 0 mm 3 mps 732 mmHg 89%
    22:00 0°C° 0 mm 3 mps 733 mmHg 91%
    23:00 0°C° 0 mm 3 mps 733 mmHg 93%

    27 October, Saturday

    Time Temperature Precipitation Wind Pressure Humidity
    00:00 0°C° 0 mm 3 mps 733 mmHg 94%
    01:00 -1°C° 0 mm 3 mps 734 mmHg 94%
    02:00 -1°C° 0 mm 3 mps 734 mmHg 95%
    03:00 -1°C° 0 mm 2 mps 734 mmHg 95%
    04:00 -1°C° 0 mm 2 mps 735 mmHg 96%
    05:00 -1°C° 0 mm 2 mps 735 mmHg 96%
    06:00 -1°C° 0 mm 2 mps 735 mmHg 95%
    07:00 -1°C° 0 mm 3 mps 735 mmHg 93%
    08:00 0°C° 0 mm 3 mps 736 mmHg 92%
    09:00 +1°C° 0 mm 3 mps 735 mmHg 87%
    10:00 +1°C° 0 mm 4 mps 735 mmHg 83%
    11:00 +4°C° 0 mm 4 mps 735 mmHg 78%
    12:00 +4°C° 0 mm 4 mps 734 mmHg 79%
    13:00 +3°C° 0 mm 5 mps 734 mmHg 80%
    14:00 +3°C° 0 mm 5 mps 734 mmHg 80%
    15:00 +3°C° 0.2 mm 5 mps 733 mmHg 82%
    16:00 +3°C° 0.2 mm 5 mps 733 mmHg 85%
    17:00 +3°C° 0.2 mm 6 mps 732 mmHg 87%
    18:00 +5°C° 0.1 mm 5 mps 732 mmHg 86%
    19:00 +5°C° 0.1 mm 5 mps 732 mmHg 84%
    20:00 +5°C° 0.1 mm 5 mps 732 mmHg 83%
    21:00 +5°C° 0.1 mm 5 mps 732 mmHg 84%
    22:00 +5°C° 0.1 mm 4 mps 733 mmHg 85%
    23:00 +5°C° 0.1 mm 4 mps 733 mmHg 86%

    28 October, Sunday

    Time Temperature Precipitation Wind Pressure Humidity
    00:00 +5°C° 0.1 mm 3 mps 733 mmHg 88%
    01:00 +4°C° 0.1 mm 3 mps 733 mmHg 90%
    02:00 +4°C° 0.1 mm 3 mps 733 mmHg 91%
    03:00 +5°C° 0.1 mm 2 mps 733 mmHg 93%
    04:00 +5°C° 0.1 mm 2 mps 732 mmHg 94%
    05:00 +5°C° 0.1 mm 2 mps 732 mmHg 96%
    06:00 +6°C° 0.4 mm 1 mps 732 mmHg 96%
    07:00 +6°C° 0.4 mm 1 mps 732 mmHg 96%
    08:00 +6°C° 0.4 mm 1 mps 732 mmHg 97%
    09:00 +6°C° 0.6 mm 1 mps 732 mmHg 96%
    10:00 +7°C° 0.6 mm 1 mps 732 mmHg 96%
    11:00 +7°C° 0.6 mm 1 mps 732 mmHg 96%
    12:00 +7°C° 1.5 mm 1 mps 732 mmHg 96%
    13:00 +7°C° 1.5 mm 1 mps 731 mmHg 97%
    14:00 +6°C° 1.5 mm 2 mps 731 mmHg 98%
    15:00 +6°C° 2 mm 2 mps 730 mmHg 97%
    16:00 +7°C° 2 mm 2 mps 730 mmHg 97%
    17:00 +7°C° 2 mm 2 mps 729 mmHg 97%
    18:00 +8°C° 0.5 mm 3 mps 729 mmHg 96%
    19:00 +8°C° 0.5 mm 3 mps 729 mmHg 95%
    20:00 +8°C° 0.5 mm 4 mps 729 mmHg 94%
    21:00 +8°C° 0.2 mm 4 mps 729 mmHg 92%
    22:00 +9°C° 0.2 mm 5 mps 729 mmHg 90%
    23:00 +9°C° 0.2 mm 6 mps 729 mmHg 88%

    29 October, Monday

    Time Temperature Precipitation Wind Pressure Humidity
    00:00 +8°C° 0.1 mm 6 mps 730 mmHg 86%
    01:00 +5°C° 0.1 mm 6 mps 731 mmHg 83%
    02:00 +4°C° 0.1 mm 7 mps 732 mmHg 81%
    03:00 +4°C° 0 mm 6 mps 733 mmHg 81%
    04:00 +3°C° 0 mm 6 mps 734 mmHg 81%
    05:00 +2°C° 0 mm 5 mps 735 mmHg 81%
    06:00 +3°C° 0 mm 5 mps 736 mmHg 81%
    07:00 +3°C° 0 mm 5 mps 737 mmHg 82%
    08:00 +3°C° 0 mm 5 mps 738 mmHg 82%
    09:00 +3°C° 0 mm 5 mps 739 mmHg 80%
    10:00 +3°C° 0 mm 5 mps 740 mmHg 78%
    11:00 +5°C° 0 mm 4 mps 740 mmHg 76%
    12:00 +4°C° 0 mm 4 mps 741 mmHg 77%
    13:00 +4°C° 0 mm 4 mps 742 mmHg 77%
    14:00 +4°C° 0 mm 4 mps 742 mmHg 78%
    15:00 +4°C° 0 mm 3 mps 743 mmHg 81%
    16:00 +3°C° 0 mm 3 mps 743 mmHg 83%
    17:00 +4°C° 0 mm 2 mps 743 mmHg 86%
    18:00 +3°C° 0 mm 2 mps 744 mmHg 87%
    19:00 +3°C° 0 mm 2 mps 744 mmHg 88%
    20:00 +3°C° 0 mm 2 mps 745 mmHg 89%
    21:00 +4°C° 0 mm 1 mps 745 mmHg 89%
    22:00 +3°C° 0 mm 1 mps 745 mmHg 89%
    23:00 +3°C° 0 mm 1 mps 746 mmHg 88%
    Show more